User: anonymous   Login
Location: Karcze
(52.0945°N, 22.4786°E)
Time: 03:51:40
(UTC+00:00)
Language:

FENGYUN 1C DEB - Orbit

View from above orbital plane
View from above orbital plane
View from above satellite
View from above satellite

Ground track
Ground track

The orbit data is extracted from the following two-line orbital elements,

1 32445U 99025DBH 21297.36868442  .00030597  00000-0  17550-2 0  9999
2 32445  99.3428 332.3488 0019938 255.2338 104.6677 15.12351217507173
Epoch (UTC): 24 October 2021 08:50:54
Eccentricity: 0.0019938
inclination: 99.3428°
perigee height: 515 km
apogee height: 543 km
right ascension of ascending node: 332.3488°
argument of perigee: 255.2338°
revolutions per day: 15.12351217
mean anomaly at epoch: 104.6677°
orbit number at epoch: 50717

The dashed part of the orbit path shows where the satellite is in the earth's shadow,  

DLR